This is the latest recevied weather packets stored in our database for station/object W7TRD. If no packets are shown the sender has not sent any weather packets the latest 10 day(s).
| Time | Temp. | Humidity | Pressure | Rain* | Wind** | Luminosity | Snow |
|---|---|---|---|---|---|---|---|
| 1788549493 | 17.78° C | 71% | 1014.2 hPa | 0 mm | - | 472 W/m² | - |
| 1788549189 | 17.22° C | 72% | 1014.5 hPa | 0 mm | - | 414 W/m² | - |
| 1788548885 | 17.22° C | 72% | 1014.6 hPa | 0 mm | - | 321 W/m² | - |
| 1788548580 | 17.22° C | 73% | 1014.6 hPa | 0 mm | - | 289 W/m² | - |
| 1788548276 | 17.22° C | 74% | 1014.6 hPa | 0 mm | - | 266 W/m² | - |
| 1788547971 | 17.78° C | 76% | 1014.4 hPa | 0 mm | - | 266 W/m² | - |
| 1788547670 | 17.22° C | 74% | 1014.6 hPa | 0 mm | - | 325 W/m² | - |
| 1788547366 | 17.78° C | 75% | 1014.4 hPa | 0 mm | - | 565 W/m² | - |
| 1788547062 | 17.22° C | 76% | 1014.4 hPa | 0 mm | - | 434 W/m² | - |
| 1788546757 | 17.22° C | 76% | 1014.3 hPa | 0 mm | - | 477 W/m² | - |
| 1788546452 | 16.11° C | 80% | 1014.4 hPa | 0 mm | - | 496 W/m² | - |
| 1788546164 | 16.11° C | 82% | 1014.5 hPa | 0 mm | - | 320 W/m² | - |
| 1788545842 | 15.56° C | 82% | 1014.5 hPa | 0 mm | - | 309 W/m² | - |
| 1788545542 | 15.56° C | 82% | 1014.3 hPa | 0 mm | - | 261 W/m² | - |
| 1788545238 | 15.56° C | 82% | 1014.4 hPa | 0 mm | - | 272 W/m² | - |
| 1788544933 | 15.56° C | 84% | 1014.3 hPa | 0 mm | - | 320 W/m² | - |
| 1788544632 | 15.56° C | 83% | 1014.2 hPa | 0 mm | - | 274 W/m² | - |
| 1788544330 | 15.56° C | 84% | 1014.2 hPa | 0 mm | - | 284 W/m² | - |
| 1788544025 | 15° C | 84% | 1014.3 hPa | 0 mm | - | 225 W/m² | - |
| 1788543721 | 15° C | 85% | 1014.1 hPa | 0 mm | - | 254 W/m² | - |
| 1788543417 | 15.56° C | 86% | 1014.1 hPa | 0 mm | - | 270 W/m² | - |
| 1788543111 | 15° C | 86% | 1014.1 hPa | 0 mm | - | 303 W/m² | - |
| 1788542808 | 15° C | 87% | 1014.2 hPa | 0 mm | - | 390 W/m² | - |
| 1788542507 | 13.89° C | 91% | 1014.1 hPa | 0 mm | - | 312 W/m² | - |
| 1788542202 | 13.89° C | 92% | 1014.1 hPa | 0 mm | - | 238 W/m² | - |
* Rain latest hour (hover to see other rain measurements)
** Current wind speed in m/s (hover to see current wind gust speed)